Location: College Park
(38.9810°N, 76.9370°W)
Time: 07:07:20

N. Korean satellite - Pass Details

Date: 04 January 2018
Orbit: 460 x 512 km, 97.2° (Epoch: 21 March)

Event Time Altitude Azimuth Distance (km) Brightness Sun altitude
Rises 18:58:34 0° 202° (SSW) 2,611 10.7 -22.6°
Reaches altitude 10° 19:01:11 10° 222° (SW) 1,727 10.0 -23.1°
Maximum altitude 19:03:46 18° 266° (W) 1,311 9.6 -23.6°
Drops below altitude 10° 19:06:20 10° 310° (NW) 1,724 9.8 -24.1°
Sets 19:08:58 0° 330° (NNW) 2,605 10.5 -24.6°
